Theta_e
302 298 295 299 301 302 301 302 302 306 309 308 307 308 311 315 318 319 320 320 320 321 319 320 322 325 328 320 314 312 309 308 309 309 309 309 310 312 311 313 315 314 315 315
299 295 299 301 301 300 300 299 301 306 309 306 305 307 310 311 314 317 317 318 318 316 314 315 318 322 326 321 314 311 310 311 312 315 316 317 313 313 313 312 312 312 312 313
296 299 301 299 298 297 299 298 300 301 304 306 305 303 306 310 312 314 315 317 317 313 311 312 313 317 322 323 318 313 311 310 312 313 312 312 309 311 310 310 309 310 311 311
297 301 298 297 296 298 294 300 300 301 301 296 303 294 303 306 306 308 311 313 313 312 311 310 311 312 314 317 321 321 318 315 314 316 315 314 312 309 308 308 308 308 310 310
295 296 296 295 296 298 295 300 299 300 299 298 299 296 301 306 303 306 309 310 311 311 309 308 308 309 310 311 313 314 314 312 313 313 313 311 309 308 308 308 308 308 309 309
297 302 299 298 299 298 300 298 298 298 297 291 298 298 299 302 304 306 309 309 309 310 309 308 308 308 307 308 309 310 309 308 310 310 310 310 308 307 306 307 306 306 307 308
296 296 299 300 295 299 297 293 288 287 289 288 298 297 300 307 309 309 308 309 309 310 308 307 306 306 306 306 307 307 307 306 307 308 308 308 308 308 307 307 306 306 306 306
291 289 296 299 296 295 295 294 289 282 285 289 296 294 299 308 310 312 312 311 311 310 309 307 307 306 306 306 305 305 305 304 306 306 306 307 307 306 306 306 306 305 305 306
291 291 299 299 300 298 295 292 297 292 293 290 293 298 303 307 308 310 311 311 311 310 308 307 306 306 305 305 304 305 305 304 305 305 306 306 306 305 305 306 306 305 306 305
296 289 297 298 299 299 296 299 291 293 285 284 291 293 295 302 304 308 309 310 311 310 308 307 306 306 306 306 306 307 306 304 305 305 305 305 305 305 305 306 305 305 305 306
298 294 293 297 295 293 294 292 295 295 293 288 287 292 303 303 306 307 309 311 312 311 309 307 306 306 306 306 306 306 304 304 304 304 304 304 304 305 305 305 305 305 305 304
297 295 289 292 298 299 298 295 295 291 288 293 293 292 304 306 307 309 309 311 313 313 310 308 307 306 305 305 305 305 304 304 304 304 304 303 304 304 304 304 304 305 304 304
293 292 287 289 294 297 295 296 296 296 295 291 290 292 304 306 305 309 309 310 312 312 310 308 307 306 305 305 305 304 304 303 304 303 303 302 302 303 303 303 304 304 303 303
293 291 290 286 289 294 292 294 296 295 291 292 292 295 299 302 304 306 308 311 312 311 310 308 307 306 305 305 305 304 304 304 303 302 302 301 302 303 303 303 303 303 303 302
290 285 290 292 294 294 293 293 294 292 294 292 294 294 298 301 303 305 307 309 311 310 310 308 307 306 305 305 305 304 304 304 303 302 301 301 302 302 302 302 302 302 302 301
288 282 287 286 291 292 291 294 294 294 294 295 296 296 303 304 305 305 307 309 309 309 309 308 307 306 305 304 304 304 303 302 302 301 300 301 301 301 301 301 301 301 300 300
282 282 282 280 288 289 286 291 293 294 296 296 292 298 303 301 303 306 308 309 309 309 309 308 308 308 307 306 306 304 303 303 301 300 300 300 300 299 300 300 300 299 300 300
280 282 283 279 282 276 290 298 297 294 296 298 298 300 301 302 305 308 310 310 309 309 309 309 310 309 308 308 306 306 304 302 301 300 299 299 299 299 299 299 299 299 300 299
285 282 280 278 278 283 288 293 294 293 293 299 298 300 301 303 304 306 310 312 312 311 312 311 312 311 309 306 307 305 302 301 300 299 298 298 299 298 298 298 298 299 299 298
285 284 282 280 276 275 286 293 298 298 289 299 299 301 300 302 297 301 309 312 312 313 313 312 311 311 310 308 307 305 303 301 299 299 298 298 298 298 297 298 298 298 298 297
282 282 279 279 278 282 290 294 297 287 289 296 299 299 300 301 302 306 310 311 313 312 312 312 310 308 309 308 307 304 303 301 301 300 299 298 299 298 298 298 298 297 296 296
277 276 277 280 277 275 293 293 287 291 295 294 297 298 300 302 304 306 306 309 311 309 310 310 309 308 310 308 306 303 301 303 302 300 298 297 298 297 297 297 297 296 296 295
276 280 280 278 281 292 289 293 293 295 292 291 292 295 298 299 301 304 306 307 309 309 309 310 309 308 309 307 306 301 301 302 301 299 297 297 297 297 297 296 295 295 296 295
280 283 280 280 284 286 289 291 291 291 292 291 291 292 295 298 298 300 304 306 307 309 309 309 309 307 307 306 305 304 303 302 300 298 297 297 296 295 296 296 295 295 295 295
279 281 279 279 282 284 286 288 289 292 291 289 290 290 291 296 296 298 300 304 306 307 308 308 308 307 305 304 305 305 303 302 299 298 297 296 295 295 295 295 294 295 292 292
281 279 277 278 283 283 283 287 288 287 287 288 287 287 291 295 294 297 298 302 305 306 307 307 308 308 305 304 304 304 303 301 299 297 296 296 295 295 295 291 289 283 284 283
Wind_Speed
16 15 19 22 23 24 25 24 26 27 22 22 22 22 19 18 17 18 17 17 16 15 12 11 9 8 12 11 10 10 10 8 7 5 5 4 4 7 4 5 7 8 8 8
16 19 19 20 22 22 26 27 24 22 16 17 21 22 16 18 18 18 17 17 17 16 14 12 11 10 10 14 11 10 9 7 5 4 3 5 6 7 7 6 8 9 9 10
19 16 14 22 21 18 22 26 20 26 15 12 14 19 18 18 17 16 16 16 16 16 16 14 12 11 10 11 13 12 11 10 7 8 7 7 4 6 6 6 6 8 9 10
19 17 16 13 20 19 23 22 24 26 15 15 20 16 22 22 20 20 20 19 18 17 16 14 14 13 11 10 9 11 12 12 11 11 8 8 5 6 6 6 7 7 9 9
16 13 16 22 21 19 23 22 22 26 23 15 19 19 15 24 22 27 24 22 20 18 17 17 15 14 13 12 11 10 10 9 8 7 7 6 7 7 6 6 7 7 7 8
19 13 14 17 16 20 19 19 21 23 21 19 20 20 21 25 28 25 25 23 21 21 19 17 15 15 14 13 12 11 11 11 9 8 7 8 8 8 7 6 6 5 5 6
20 22 21 13 16 16 18 17 15 19 19 18 26 28 19 18 29 29 28 26 25 23 21 19 19 18 16 15 13 12 12 12 11 10 10 9 9 9 9 6 5 6 5 6
17 20 24 19 24 21 24 20 16 24 18 22 28 29 27 26 24 28 27 27 25 24 20 21 20 18 17 16 15 14 13 13 12 11 11 10 10 6 6 6 6 6 6 6
17 21 19 13 20 20 23 23 26 26 24 22 22 22 34 18 24 18 21 27 28 26 24 23 21 19 18 17 17 15 15 14 13 12 10 9 8 7 8 8 7 6 7 7
20 22 19 8 14 20 26 21 20 18 26 28 26 28 18 25 21 23 22 25 27 26 25 23 21 21 18 18 17 15 14 14 13 12 10 9 9 9 8 7 8 8 7 8
17 18 21 17 21 19 19 22 22 18 21 19 21 21 22 20 25 25 23 24 26 28 26 25 23 21 20 19 18 17 15 15 14 12 11 11 9 9 8 8 8 8 8 7
13 10 17 27 19 17 23 24 26 17 22 18 22 18 18 13 11 25 22 24 27 27 26 25 23 22 21 20 19 18 16 16 14 13 12 11 11 10 9 9 8 8 8 7
14 8 14 19 19 23 22 24 22 23 22 23 20 20 22 17 10 18 21 20 24 25 27 25 24 22 22 20 20 19 18 17 15 14 13 12 12 11 10 10 9 9 8 8
14 12 17 16 20 17 19 23 23 24 18 19 23 25 24 26 14 9 13 17 24 27 28 26 24 23 22 22 20 20 19 17 16 15 14 13 12 12 10 10 9 9 8 8
11 12 17 21 25 26 24 24 25 26 25 24 24 31 23 23 15 15 13 16 23 28 30 28 26 23 23 22 21 20 19 18 17 16 15 13 12 12 11 10 9 8 8 7
8 12 16 20 21 23 25 25 26 22 29 27 28 27 22 26 23 15 17 16 23 26 28 29 28 28 25 24 22 20 20 19 17 16 15 14 13 13 12 11 10 9 8 7
20 13 14 20 20 24 24 27 29 24 22 21 26 23 22 21 18 9 11 18 23 24 26 29 29 26 23 23 21 22 20 19 18 17 16 15 14 13 13 12 11 10 9 8
23 19 13 16 17 19 15 22 26 28 27 26 25 24 21 20 21 18 12 17 20 24 27 28 24 24 24 24 23 21 21 19 17 17 17 16 15 14 13 12 11 11 9 8
25 21 14 16 16 22 28 19 19 24 28 25 26 25 22 21 16 14 17 19 21 24 24 24 22 22 22 24 23 23 22 21 19 19 18 17 16 15 14 13 12 10 9 8
23 24 17 14 18 25 23 22 25 24 18 16 19 22 24 23 13 13 21 17 18 19 19 19 23 23 23 23 23 24 23 23 21 20 19 17 16 15 15 14 12 10 9 9
13 17 23 21 20 19 19 18 25 19 6 19 21 21 22 14 14 18 8 15 16 18 22 21 23 23 24 22 22 23 22 22 21 19 18 17 16 16 15 13 11 10 10 9
21 9 8 20 21 23 8 20 20 5 10 17 18 19 19 17 18 15 13 5 15 21 25 26 23 25 25 25 23 23 22 20 20 18 19 18 17 13 12 14 12 11 10 10
15 12 13 3 6 13 19 10 12 12 9 15 19 20 20 19 18 16 12 11 9 18 21 25 22 24 24 26 24 23 21 21 21 20 20 19 18 15 14 13 12 10 10 8
24 24 18 19 17 16 15 10 17 21 7 17 20 22 22 18 18 18 16 9 8 14 19 21 24 23 23 24 25 21 23 22 23 22 21 17 17 16 15 11 10 9 8 8
17 20 24 25 30 26 27 22 13 16 20 20 22 23 23 19 18 17 16 17 8 11 16 20 22 22 24 26 24 24 24 24 21 20 18 17 14 15 14 11 7 9 7 2
18 22 19 24 23 20 25 25 24 26 25 24 23 23 23 20 19 20 17 15 13 9 13 17 21 23 23 23 23 24 24 25 23 20 16 14 13 12 11 11 9 22 15 14
Wind_Direction
204 227 229 231 227 248 254 239 221 249 171 198 219 216 169 183 189 185 183 174 174 165 139 147 133 143 130 124 127 125 123 124 130 113 130 138 148 132 173 100 70 61 45 43
237 231 252 249 251 239 245 255 255 233 160 184 216 212 165 190 198 190 186 182 173 154 159 150 150 150 158 140 136 134 133 145 151 130 60 111 111 86 92 81 68 56 54 40
236 234 239 241 246 246 249 241 245 252 147 203 228 218 173 192 204 197 200 191 178 170 166 160 153 150 150 148 148 148 148 149 148 129 130 118 110 138 120 104 78 59 56 51
250 241 247 243 251 241 244 240 248 257 177 209 219 224 188 191 204 202 199 199 184 182 168 165 160 155 150 142 141 148 151 145 154 175 153 164 149 119 89 97 83 73 55 53
229 227 245 230 238 242 248 259 250 242 252 226 202 227 222 187 202 208 200 197 187 186 179 174 168 161 153 146 147 140 143 135 138 127 125 146 113 130 117 108 102 96 84 63
253 261 242 254 253 241 264 251 254 258 236 233 223 217 219 209 212 210 202 194 191 188 183 178 171 161 156 151 148 146 143 133 131 126 128 113 131 128 133 125 123 105 90 78
239 238 247 224 253 242 220 236 226 231 227 232 207 234 223 228 207 208 198 194 193 188 185 180 175 174 164 158 154 152 146 138 133 131 127 129 128 121 130 136 114 112 95 77
240 229 222 224 226 245 213 225 232 232 225 230 228 227 235 219 255 203 194 190 192 187 186 187 180 179 166 161 161 158 152 143 141 135 134 132 139 126 115 97 103 92 84 79
263 257 266 228 223 223 241 217 236 247 248 243 236 233 238 238 218 184 195 186 192 186 186 189 179 177 170 169 165 163 156 152 149 147 140 132 127 120 111 115 114 101 104 106
252 263 270 250 234 240 234 245 225 235 243 244 240 246 231 222 221 196 192 192 189 184 187 185 184 178 174 173 163 164 163 157 150 148 142 136 130 128 126 122 104 101 107 101
295 272 251 255 232 240 223 236 248 242 238 253 252 240 238 244 194 211 198 195 187 189 186 185 185 177 175 170 165 165 166 157 155 154 147 140 137 134 133 125 122 118 112 108
336 297 258 247 250 251 251 249 227 241 234 242 250 254 256 312 243 193 213 191 189 186 189 185 185 175 174 172 167 169 166 162 162 156 150 145 144 143 140 133 130 126 115 110
344 275 253 245 239 242 247 248 252 231 246 250 241 240 255 264 298 190 195 202 178 181 188 183 183 180 175 174 170 169 166 167 164 159 155 151 151 150 142 139 133 130 129 118
299 258 267 263 252 247 230 233 254 255 226 241 252 256 233 244 212 256 196 193 173 181 187 187 182 181 177 174 175 170 167 166 165 160 159 158 155 149 146 142 139 135 133 123
331 277 280 283 286 282 287 283 227 239 248 239 234 247 250 255 211 225 229 200 185 188 185 187 181 182 180 174 173 171 166 165 165 163 161 158 151 150 146 143 142 138 136 128
314 281 298 290 281 280 277 271 272 243 232 246 250 248 244 256 266 227 200 199 193 194 186 186 186 181 180 174 173 169 167 165 166 164 159 157 156 153 150 150 147 145 141 144
284 267 265 270 282 272 255 248 256 262 263 246 247 254 254 247 245 282 193 200 195 191 189 190 187 180 178 174 170 168 166 164 167 164 158 159 162 158 158 157 156 158 152 147
251 258 263 261 275 273 249 246 246 252 261 263 265 266 262 255 248 221 204 207 198 193 191 192 184 179 179 172 171 165 165 165 166 166 161 165 164 161 163 163 162 161 159 154
229 237 250 248 239 255 277 273 257 248 249 249 261 265 258 256 267 206 220 199 202 201 194 187 175 173 174 173 169 166 166 166 168 167 166 168 166 164 166 167 163 164 160 155
221 225 233 240 240 242 250 260 263 278 276 357 339 314 242 252 230 252 220 192 196 197 192 179 172 173 174 175 171 167 168 167 170 168 167 165 168 167 170 167 165 163 163 157
245 215 215 227 243 259 269 251 251 278 276 356 352 359 348 276 225 247 264 183 169 183 186 175 174 178 175 172 171 173 167 170 164 163 162 165 168 169 168 161 162 165 164 154
279 286 233 234 234 246 294 254 270 32 341 357 354 358 348 352 354 351 331 176 174 179 184 183 179 176 171 172 176 176 170 161 157 159 164 165 168 167 162 162 164 167 157 163
271 265 274 213 293 259 4 341 348 343 3 357 349 346 345 2 358 343 324 306 200 198 187 185 183 179 174 171 174 171 163 158 154 160 164 165 165 165 162 165 165 164 168 170
261 271 268 281 265 259 304 283 305 306 339 345 341 337 334 340 344 337 324 300 265 206 193 185 183 183 174 170 174 174 162 155 158 163 161 163 165 163 165 164 168 166 172 177
271 287 279 281 274 281 281 285 300 313 313 323 325 325 319 319 325 326 319 315 275 231 207 185 189 183 173 174 177 168 161 157 159 161 158 161 162 165 165 159 169 167 64 38
251 257 258 264 272 286 287 295 298 298 303 303 306 305 300 302 314 313 310 310 300 230 217 191 190 180 173 177 179 164 163 159 158 157 158 161 157 166 163 142 100 61 82 73